Regional Weather Roundup
Issued by NWS

Home | Current Version | Previous Version | Text Only | Print | Product List | Glossary Off
Versions: 1 2 3 4 5 6 7 8 9 10 11 12 13 14 15 16 17 18 19 20 21 22 23 24 25 26 27 28 29 30 31 32 33 34 35 36 37 38 39 40 41 42 43 44 45 46 47 48 49 50

000
ASUS43 KMPX 240510
RWRMN
WEATHER ROUNDUP FOR MINNESOTA
NATIONAL WEATHER SERVICE TWIN CITIES/CHANHASSEN MN
1200 AM CDT THU APR 24 2014


NOTE: "FAIR" INDICATES FEW OR NO CLOUDS BELOW 12,000 FEET WITH NO
SIGNIFICANT WEATHER AND/OR OBSTRUCTIONS TO VISIBILITY. N/A MEANS
CURRENT SKY AND/OR WEATHER CONDITIONS ARE NOT AVAILABLE.

MNZ060>063-068>070-240600-
   Twin Cities Metro

CITY           SKY/WX    TMP DP  RH WIND       PRES   REMARKS
TWIN CITIES    CLOUDY    43  38  82 E10       29.93S
ST PAUL        CLOUDY    44  37  76 SE10      29.95S
CRYSTAL        CLOUDY    44  36  73 E9        29.93R
BLAINE         CLOUDY    45  41  87 E9        29.94S
EDEN PRAIRIE   CLOUDY    44  37  76 E10       29.90F
LAKEVILLE      CLOUDY    39  37  93 E13       29.91R
SOUTH ST PAUL  CLOUDY    46  38  74 E6        29.93F
LAKE ELMO      CLOUDY    43  37  81 E9        29.95F
$$
MNZ001>005-007-008-013>017-022>024-027-028-240600-
   Northwest Minnesota

CITY           SKY/WX    TMP DP  RH WIND       PRES   REMARKS
BEMIDJI        LGT SNOW  32  32 100 E8        29.91F WCI  25
HALLOCK        CLOUDY    39  37  93 E16G23    29.87S
ROSEAU         LGT RAIN  37  34  87 SE9       29.93F
WARROAD        MIX PCPN  39  36  87 SE8       29.94F
THIEF RVR FALL CLOUDY    36  32  87 E18       29.87S
CROOKSTON      CLOUDY    37  37 100 SE14      29.85S
FOSSTON        CLOUDY    34  34 100 SE14G21   29.85F WCI  24
DETROIT LAKES  CLOUDY    37  36  93 SE16G29   29.84R
MOORHEAD       CLOUDY    43  41  93 SE18G24   29.81S
PARK RAPIDS    CLOUDY    36  35  96 E12       29.87F
$$
MNZ006-009>011-018-025>026-240600-
   North Central Minnesota

CITY           SKY/WX    TMP DP  RH WIND       PRES   REMARKS
BAUDETTE       LGT RAIN  39  37  92 SE9       29.96F
FLAG ISLAND    CLOUDY    36  32  87 S7        29.95S
INTL FALLS     CLOUDY    44  24  45 CALM      29.99R
WASKISH        RAIN      37  36  93 E9        29.95F
BIG FORK       RAIN      36  34  93 E6        29.99S
LONGVILLE      RAIN      36  36 100 SE8       29.93F
GRAND RAPIDS   CLOUDY    36  32  87 E7        29.96F
CRANE LAKE     CLOUDY    39  19  45 SE3       30.03S
ORR            FLURRIES  36  30  80 S7        30.01R
COOK           LGT SNOW  34  32  93 SE3       30.03R
$$
MNZ012-019>021-037-240600-
   Northeast Minnesota

CITY           SKY/WX    TMP DP  RH WIND       PRES   REMARKS
DULUTH         LGT RAIN  35  32  88 E9        30.01S WCI  28
ELY            CLOUDY    37  21  52 CALM      30.02R
HIBBING        LGT SNOW  34  32  92 E8        30.00F FOG     WCI  27
EVELETH        MIX PCPN  34  32  93 E5        30.03S WCI  30
DULUTH HARBOR  MIX PCPN  34  30  86 CALM      30.05S
TWO HARBORS    LGT RAIN  34  28  80 CALM      30.02S
SILVER BAY     CLOUDY    37  28  70 CALM      30.03R
GRAND MARAIS     N/A     42  23  46 NE12      30.06S
G MARAIS ARPRT CLOUDY    37  18  44 E9        30.04S
$$
MNZ029>031-032-039>041-046>048-054>057-064-240600-
   West Central Minnesota

CITY           SKY/WX    TMP DP  RH WIND       PRES   REMARKS
FERGUS FALLS   CLOUDY    41  34  75 SE16      29.80S
WHEATON        CLOUDY    43  39  87 E16       29.81S
MORRIS         DRIZZLE   41  36  81 SE21      29.78S
ALEXANDRIA     CLOUDY    40  36  86 SE20      29.83F
ELBOW LAKE     CLOUDY    40  36  83 SE17G24   29.81S
WADENA         CLOUDY    37  36  93 E16       29.85F
GLENWOOD       CLOUDY    39  37  93 E18       29.84S
APPLETON       CLOUDY    43  37  81 E17G23    29.78S
BENSON         CLOUDY    43  37  81 SE14G23   29.80F
ORTONVILLE     CLOUDY    43  37  81 SE16      29.77S
MADISON        CLOUDY    46  39  76 SE21      29.77S
WILLMAR        CLOUDY    43  36  75 E18G25    29.83F
$$
MNZ033>034-036-042>043-049>051-058-059-240600-
   Central Minnesota

CITY           SKY/WX    TMP DP  RH WIND       PRES   REMARKS
ST CLOUD       CLOUDY    42  37  82 E10G22    29.89F
SAUK CENTRE    CLOUDY    40  36  87 E14G21    29.86F
PAYNESVILLE    CLOUDY    41  37  84 E13G21    29.86F
AITKIN         CLOUDY    39  34  81 E5        29.95R
PINE RIVER     DRIZZLE   37  36  93 SE12G18   29.94F
BRAINERD       CLOUDY    42  36  79 SE7       29.93F
STAPLES        CLOUDY    37  36  93 E8        29.88F
LONG PRAIRIE   CLOUDY    39  36  87 E16       29.87F
LITTLE FALLS   CLOUDY    37  36  93 E12G20    29.90S
LITCHFIELD     CLOUDY    43  39  87 E13       29.87S
BUFFALO        CLOUDY    42  37  84 E12       29.89F
MAPLE LAKE     CLOUDY    42  39  91 E10G17    29.90F
$$
MNZ037-044-045-052-053-240600-
   East Central Minnesota

CITY           SKY/WX    TMP DP  RH WIND       PRES   REMARKS
PRINCETON      CLOUDY    43  37  81 E8G16     29.93F
MORA           CLOUDY    36  34  93 E10       29.97F
CAMBRIDGE      CLOUDY    43  36  75 E12       29.90F
RUSH CITY      CLOUDY    39  37  89 E13       29.97F
MOOSE LAKE     LGT RAIN  37  34  87 E6        29.98S
HINCKLEY       LGT RAIN  39  37  93 E9        29.97F
CLOQUET        RAIN      36  34  93 E9        30.00S
MCGREGOR       CLOUDY    37  36  93 E8        29.98R
$$
MNZ071>073-080-081-089-090-097-098-240600-
   Southwest Minnesota

CITY           SKY/WX    TMP DP  RH WIND       PRES   REMARKS
MONTEVIDEO     CLOUDY    43  39  87 S22G28    29.79F
GRANITE FALLS  CLOUDY    43  37  77 E10G23    29.81F
CANBY          CLOUDY    42  39  88 SE13      29.77S
MARSHALL       CLOUDY    45  36  70 SE15      29.77R
REDWOOD FALLS  CLOUDY    44  37  76 E10G20    29.81F
OLIVIA         CLOUDY    43  36  75 E15G21    29.82F
PIPESTONE      CLOUDY    45  37  76 SE16      29.71R
WINDOM         LGT RAIN  43  39  87 SE16G23   29.77S
WORTHINGTON    CLOUDY    43  36  75 SE24G30   29.74F
JACKSON        RAIN      43  37  81 SE20G25   29.78S
TRACY          CLOUDY    44  38  78 SE12      29.78R
SLAYTON        CLOUDY    42  38  87 E16       29.77R
$$
MNZ065>067-074>077-082>085-091>093-240600-
   South Central Minnesota

CITY           SKY/WX    TMP DP  RH WIND       PRES   REMARKS
MANKATO        CLOUDY    45  36  70 SE16      29.85F
NEW ULM        CLOUDY    43  37  81 E12       29.84R
ST JAMES       CLOUDY    45  37  76 E14       29.82S
FAIRMONT       CLOUDY    43  36  75 SE13      29.83S
GLENCOE        CLOUDY    43  36  77 E13       29.87F
FARIBAULT      CLOUDY    48  34  57 E10G20    29.89S
OWATONNA       CLOUDY    45  36  70 SE18G26   29.86F
WASECA         CLOUDY    43  32  65 E20G25    29.87F
ALBERT LEA     CLOUDY    45  37  76 SE16      29.85F
$$
MNZ078>079-086>088-094>096-240600-
   Southeast Minnesota

CITY           SKY/WX    TMP DP  RH WIND       PRES   REMARKS
ROCHESTER      CLOUDY    44  35  70 SE20      29.91F
RED WING       CLOUDY    45  37  76 E15G21    29.93F
STANTON        CLOUDY    44  37  75 E9        29.91R
DODGE CENTER   CLOUDY    46  36  66 SE21      29.89F
WINONA         CLOUDY    43  37  81 SE10      29.98S
AUSTIN         CLOUDY    45  37  76 SE18      29.87F
PRESTON        LGT RAIN  44  37  78 SE14G21   29.94S
$$
ABBREVIATIONS USED IN REMARKS
   TC - TEMPERATURES IN CELSIUS
  WCI - WIND CHILL INDEX
   HX - HEAT INDEX
  VSB - VISIBILITY
$$


USA.gov is the U.S. government's official web portal to all federal, state and local government web resources and services.